DMSP 5D-2 F11 DEB, 28307

Orbit data source: Space-Track

DMSP 5D-2 F11 DEB, 28307 is space debris in SSO originally from a launch on Thu, 28 Nov 1991 UTC launched from the Air Force Western Test Range (AFWTR). Debris objects in space refer to the collection of defunct objects orbiting the Earth. Examples of debris include non-operational satellites, rocket bodies, and fragments generated from explosions, collisions, or faulty payload assembly.

Loading next visibility...
Identifier
28307, 1991-082U
Orbit
SSO
Country
Flag of USUS
Related business
Manufacturer
Unknown
Mission
Spacecraft
Bus & Motor
Unknown
Mass
Unknown
Launch date (UTC)
1991-11-28 (34 years ago)
Launch vehicle
Unknown
Launch site
Air Force Western Test Range (AFWTR)
Object type
Payload
Rocket body
Debris
Shape & HBR
Unknown shape, 0.2 m
Radar Cross Section
Small (<0.1 m²)

Expand to show TLE details & history
Last TLE update: 12 hours ago

TLE from 12 hours ago
0 DMSP 5D-2 F11 DEB
1 28307U 91082U   26121.07667759  .00000017  00000-0  33943-4 0  9993
2 28307  98.7838 160.5292 0038231 349.3161  41.3501 14.10455483133145
Epoch: 2026-05-01T01:50Z
TLE epoch observation values (Epoch: 2026-05-01T01:50:24.943Z)
Latitude
30.60868°
Longitude
-91.30598°
Altitude
840.928 km
Speed
7.446 km/s
True Right ascension
10h 21m 14s
True Declination
30° 27' 36"
Sunlit
Object was in daylight at epoch
Visualization orbit readout
Latitude
Unknown
Longitude
Unknown
Altitude
Unknown
Speed
Unknown
Apparent Right ascension
Unknown
Apparent Declination
Unknown
Sunlit
N/A
Visualization observer readout
Local Sidereal Time
21:52:45
Azimuth
Unknown
Elevation
Unknown
Doppler factor
Unknown
Orbital elements
Apogee altitude
882.641 km
Perigee altitude
827.335 km
Semi-major axis
7,233.125 km
Eccentricity
0.00382
Inclination
98.7838°
RAAN
160.5292°
Arg. of periapsis
349.3161°
True anomaly
41.64057°
Mean anomaly
41.3501°
Eccentric anomaly
41.49523°
Mean motion
3.52821 °/min
Orbital period
102.03 mins
BSTAR
0.000033943
Loading maneuver chart data...
Computing Atmospheric mass density...
Loading historical data...
Loading historical data...
Loading historical data...
Loading historical data...
Loading historical data...
Loading historical data...
Loading historical data...

Documentation

Showing up to 5 results
|